Location: ????
(55.2778°N, 39.2433°E)
Time: 20:05:56
(UTC+00:00)

CZ-4 R/B - Pass Details

Date: 14 April 2024
Orbit: 677 x 749 km, 98.6° (Epoch: 17 May)

Event Time Altitude Azimuth Distance (km) Brightness Sun altitude
Rises 01:21:15 0° 14° (NNE) 3,139 7.9 -8.6°
Reaches altitude 10° 01:23:34 10° 11° (N) 2,203 7.0 -8.3°
Maximum altitude 01:28:19 61° 292° (WNW) 802 4.0 -7.7°
Drops below altitude 10° 01:32:56 10° 213° (SSW) 2,145 5.8 -7.1°
Enters shadow 01:34:08 - 211° (SSW) 2,627 6.2 -7.0°
